| time (UTC) | temp F | wind direction | speed MPH | gust MPH | rain 1hr in | rain 24hr in | rain mn in | humidity % | barometer mb |
| 20260905073525 | 77 | 142 | 0.0 | 0.0 | 0.00 | 0.01 | 0.00 | 91 | 1014.3 |
| 20260905073024 | 77 | 142 | 0.0 | 0.0 | 0.00 | 0.01 | 0.00 | 91 | 1014.2 |
| 20260905072523 | 77 | 142 | 0.0 | 0.0 | 0.00 | 0.01 | 0.00 | 91 | 1014.4 |
| 20260905072253 | 77 | 142 | 0.0 | 0.0 | 0.00 | 0.01 | 0.00 | 91 | 1014.3 |
| 20260905071517 | 77 | 142 | 0.0 | 0.0 | 0.00 | 0.01 | 0.00 | 91 | 1014.3 |
| 20260905071015 | 77 | 142 | 0.0 | 0.0 | 0.00 | 0.01 | 0.00 | 91 | 1014.4 |
| 20260905070513 | 77 | 142 | 0.0 | 0.0 | 0.00 | 0.01 | 0.00 | 91 | 1014.5 |
| 20260905070010 | 78 | 142 | 0.0 | 0.0 | 0.00 | 0.01 | 0.00 | 91 | 1014.4 |
| 20260905065510 | 78 | 142 | 0.0 | 0.0 | 0.00 | 0.01 | 0.00 | 91 | 1014.3 |
| 20260905065009 | 78 | 142 | 0.0 | 0.0 | 0.00 | 0.01 | 0.00 | 91 | 1014.3 |
| 20260905064506 | 78 | 142 | 0.0 | 0.0 | 0.00 | 0.01 | 0.00 | 91 | 1014.3 |
| 20260905064012 | 78 | 142 | 0.0 | 0.0 | 0.00 | 0.01 | 0.00 | 91 | 1014.4 |
| 20260905064006 | 78 | 142 | 0.0 | 0.0 | 0.00 | 0.01 | 0.00 | 91 | 1014.4 |
| 20260905063004 | 78 | 142 | 0.0 | 0.0 | 0.00 | 0.01 | 0.00 | 90 | 1014.4 |
| 20260905062507 | 78 | 142 | 0.0 | 0.0 | 0.00 | 0.01 | 0.00 | 90 | 1014.3 |
| 20260905062229 | 78 | 142 | 0.0 | 0.0 | 0.00 | 0.01 | 0.00 | 90 | 1014.3 |
| 20260905061457 | 78 | 142 | 0.0 | 0.0 | 0.00 | 0.01 | 0.00 | 90 | 1014.2 |
| 20260905061229 | 78 | 142 | 0.0 | 0.0 | 0.00 | 0.01 | 0.00 | 90 | 1014.2 |
| 20260905060953 | 78 | 142 | 0.0 | 0.0 | 0.00 | 0.01 | 0.00 | 90 | 1014.2 |
| 20260905055949 | 78 | 142 | 0.0 | 0.0 | 0.00 | 0.01 | 0.00 | 89 | 1014.2 |
| 20260905055449 | 78 | 142 | 0.0 | 0.0 | 0.00 | 0.01 | 0.00 | 89 | 1014.3 |
| 20260905055221 | 78 | 142 | 0.0 | 0.0 | 0.00 | 0.01 | 0.00 | 89 | 1014.3 |
| 20260905054720 | 78 | 142 | 0.0 | 0.0 | 0.00 | 0.01 | 0.00 | 89 | 1014.4 |
| 20260905053951 | 78 | 142 | 0.0 | 0.0 | 0.00 | 0.01 | 0.00 | 89 | 1014.4 |
| 20260905053451 | 78 | 142 | 0.0 | 0.0 | 0.00 | 0.01 | 0.00 | 89 | 1014.5 |
| 20260905052945 | 78 | 142 | 0.0 | 0.0 | 0.00 | 0.01 | 0.00 | 89 | 1014.5 |
| 20260905052446 | 79 | 142 | 0.0 | 0.0 | 0.00 | 0.01 | 0.00 | 88 | 1014.4 |
| 20260905051947 | 79 | 142 | 0.0 | 0.0 | 0.00 | 0.01 | 0.00 | 88 | 1014.5 |
| 20260905051450 | 79 | 142 | 0.0 | 0.0 | 0.00 | 0.01 | 0.00 | 88 | 1014.5 |
| 20260905051445 | 79 | 142 | 0.0 | 0.0 | 0.00 | 0.01 | 0.00 | 88 | 1014.6 |
| 20260905050446 | 79 | 142 | 0.0 | 0.0 | 0.00 | 0.01 | 0.00 | 88 | 1014.4 |
| 20260905045940 | 79 | 142 | 0.0 | 0.0 | 0.00 | 0.01 | 0.01 | 88 | 1014.3 |
| 20260905045711 | 79 | 142 | 0.0 | 0.0 | 0.00 | 0.01 | 0.01 | 87 | 1014.3 |
| 20260905044937 | 79 | 142 | 0.0 | 0.0 | 0.00 | 0.01 | 0.01 | 87 | 1014.3 |
| 20260905044438 | 79 | 142 | 0.0 | 0.0 | 0.00 | 0.01 | 0.01 | 87 | 1014.4 |
| 20260905043939 | 79 | 142 | 0.0 | 0.0 | 0.00 | 0.01 | 0.01 | 87 | 1014.4 |
| 20260905043439 | 79 | 142 | 0.0 | 0.0 | 0.00 | 0.01 | 0.01 | 87 | 1014.5 |
| 20260905042939 | 79 | 142 | 0.0 | 0.0 | 0.00 | 0.01 | 0.01 | 87 | 1014.5 |
| 20260905042440 | 79 | 142 | 0.0 | 1.0 | 0.00 | 0.01 | 0.01 | 86 | 1014.5 |
| 20260905041939 | 80 | 142 | 0.0 | 2.0 | 0.00 | 0.01 | 0.01 | 86 | 1014.5 |
| 20260905041437 | 80 | 142 | 0.0 | 2.0 | 0.00 | 0.01 | 0.01 | 86 | 1014.6 |
| 20260905040936 | 80 | 142 | 0.0 | 0.0 | 0.00 | 0.01 | 0.01 | 86 | 1014.7 |
| 20260905040706 | 80 | 142 | 0.0 | 0.0 | 0.00 | 0.01 | 0.01 | 86 | 1014.8 |
| 20260905035933 | 80 | 142 | 0.0 | 0.0 | 0.00 | 0.01 | 0.01 | 86 | 1014.8 |
| 20260905035440 | 80 | 142 | 0.0 | 0.0 | 0.00 | 0.01 | 0.01 | 85 | 1014.9 |
| 20260905035433 | 80 | 142 | 0.0 | 0.0 | 0.00 | 0.01 | 0.01 | 85 | 1014.8 |
| 20260905034933 | 80 | 142 | 0.0 | 0.0 | 0.00 | 0.01 | 0.01 | 85 | 1014.7 |
| 20260905033931 | 81 | 142 | 0.0 | 2.0 | 0.00 | 0.01 | 0.01 | 85 | 1014.8 |
| 20260905033425 | 81 | 142 | 1.0 | 2.0 | 0.00 | 0.01 | 0.01 | 85 | 1014.9 |
| 20260905033154 | 81 | 142 | 0.0 | 2.0 | 0.00 | 0.01 | 0.01 | 85 | 1015.0 |
| 20260905032421 | 81 | 142 | 0.0 | 2.0 | 0.00 | 0.01 | 0.01 | 85 | 1015.1 |
| 20260905031919 | 81 | 148 | 0.0 | 2.0 | 0.00 | 0.01 | 0.01 | 85 | 1015.1 |
| 20260905031651 | 81 | 154 | 0.0 | 2.0 | 0.00 | 0.01 | 0.01 | 85 | 1015.2 |
| 20260905030913 | 81 | 154 | 0.0 | 2.0 | 0.00 | 0.01 | 0.01 | 85 | 1015.2 |
| 20260905030411 | 81 | 154 | 0.0 | 2.0 | 0.00 | 0.01 | 0.01 | 84 | 1015.2 |
| 20260905025909 | 81 | 154 | 0.0 | 2.0 | 0.00 | 0.01 | 0.01 | 84 | 1015.2 |
| 20260905025407 | 81 | 150 | 0.0 | 2.0 | 0.00 | 0.01 | 0.01 | 84 | 1015.3 |
| 20260905024908 | 81 | 150 | 1.0 | 2.0 | 0.00 | 0.01 | 0.01 | 84 | 1015.3 |
| 20260905024631 | 81 | 143 | 1.0 | 2.0 | 0.00 | 0.01 | 0.01 | 84 | 1015.3 |
| 20260905023859 | 81 | 155 | 0.0 | 2.0 | 0.00 | 0.01 | 0.01 | 84 | 1015.4 |
| 20260905023630 | 81 | 171 | 1.0 | 2.0 | 0.00 | 0.01 | 0.01 | 84 | 1015.3 |
| 20260905022855 | 81 | 127 | 1.0 | 2.0 | 0.00 | 0.01 | 0.01 | 84 | 1015.3 |
| 20260905022356 | 81 | 136 | 1.0 | 2.0 | 0.00 | 0.01 | 0.01 | 84 | 1015.3 |
| 20260905021847 | 81 | 124 | 0.0 | 0.0 | 0.00 | 0.01 | 0.01 | 84 | 1015.2 |
| 20260905021617 | 81 | 107 | 0.0 | 0.0 | 0.00 | 0.01 | 0.01 | 83 | 1015.2 |
| 20260905020845 | 82 | 107 | 0.0 | 0.0 | 0.00 | 0.01 | 0.01 | 83 | 1015.3 |
| 20260905020343 | 82 | 107 | 0.0 | 0.0 | 0.00 | 0.01 | 0.01 | 83 | 1015.2 |
| 20260905020115 | 82 | 105 | 0.0 | 0.0 | 0.00 | 0.01 | 0.01 | 83 | 1015.0 |
| 20260905015607 | 82 | 105 | 0.0 | 0.0 | 0.00 | 0.01 | 0.01 | 82 | 1014.9 |
| 20260905014835 | 82 | 105 | 0.0 | 2.0 | 0.00 | 0.01 | 0.01 | 82 | 1014.8 |
| 20260905014607 | 82 | 105 | 0.0 | 2.0 | 0.00 | 0.01 | 0.01 | 81 | 1014.8 |
| 20260905013831 | 82 | 101 | 0.0 | 0.0 | 0.00 | 0.01 | 0.01 | 81 | 1014.8 |
| 20260905013332 | 83 | 105 | 0.0 | 0.0 | 0.00 | 0.01 | 0.01 | 81 | 1014.6 |
| 20260905012828 | 83 | 105 | 0.0 | 0.0 | 0.00 | 0.01 | 0.01 | 81 | 1014.6 |
| 20260905012327 | 83 | 103 | 0.0 | 0.0 | 0.00 | 0.01 | 0.01 | 80 | 1014.5 |
| 20260905011825 | 83 | 104 | 0.0 | 0.0 | 0.00 | 0.01 | 0.01 | 80 | 1014.5 |
| 20260905011327 | 83 | 104 | 0.0 | 2.0 | 0.00 | 0.01 | 0.01 | 79 | 1014.5 |
| 20260905011055 | 84 | 117 | 1.0 | 2.0 | 0.00 | 0.01 | 0.01 | 78 | 1014.4 |
| 20260905010324 | 84 | 78 | 1.0 | 2.0 | 0.00 | 0.01 | 0.01 | 78 | 1014.4 |
| 20260905005823 | 84 | 109 | 1.0 | 3.0 | 0.00 | 0.01 | 0.01 | 78 | 1014.4 |
| 20260905005321 | 84 | 143 | 1.0 | 3.0 | 0.00 | 0.01 | 0.01 | 78 | 1014.4 |
| 20260905004820 | 84 | 165 | 1.0 | 4.0 | 0.00 | 0.01 | 0.01 | 78 | 1014.6 |
| 20260905004321 | 84 | 125 | 1.0 | 4.0 | 0.00 | 0.01 | 0.01 | 77 | 1014.5 |
| 20260905004049 | 84 | 111 | 1.0 | 3.0 | 0.00 | 0.01 | 0.01 | 78 | 1014.6 |
| 20260905003319 | 85 | 81 | 2.0 | 3.0 | 0.00 | 0.01 | 0.01 | 79 | 1014.6 |
| 20260905003043 | 85 | 89 | 2.0 | 3.0 | 0.00 | 0.01 | 0.01 | 78 | 1014.5 |
| 20260905002312 | 85 | 76 | 1.0 | 3.0 | 0.00 | 0.01 | 0.01 | 78 | 1014.6 |
| 20260905001811 | 85 | 64 | 1.0 | 3.0 | 0.00 | 0.01 | 0.01 | 78 | 1014.6 |
| 20260905001309 | 85 | 78 | 1.0 | 3.0 | 0.00 | 0.01 | 0.01 | 77 | 1014.6 |
| 20260905000809 | 85 | 71 | 2.0 | 4.0 | 0.00 | 0.01 | 0.01 | 75 | 1014.6 |
| 20260905000310 | 85 | 105 | 2.0 | 4.0 | 0.00 | 0.01 | 0.01 | 75 | 1014.8 |
| 20260904235807 | 85 | 96 | 2.0 | 4.0 | 0.00 | 0.01 | 0.01 | 75 | 1014.6 |
| 20260904235309 | 85 | 92 | 2.0 | 4.0 | 0.00 | 0.01 | 0.01 | 75 | 1014.7 |
| 20260904234808 | 86 | 87 | 2.0 | 5.0 | 0.00 | 0.01 | 0.01 | 75 | 1014.6 |
| 20260904234306 | 86 | 78 | 3.0 | 5.0 | 0.00 | 0.01 | 0.01 | 75 | 1014.6 |
| 20260904233804 | 86 | 115 | 2.0 | 5.0 | 0.00 | 0.01 | 0.01 | 75 | 1014.6 |
| 20260904233306 | 86 | 59 | 3.0 | 6.0 | 0.00 | 0.01 | 0.01 | 75 | 1014.5 |
| 20260904232759 | 86 | 84 | 3.0 | 6.0 | 0.00 | 0.01 | 0.01 | 75 | 1014.6 |
| 20260904232530 | 87 | 94 | 3.0 | 7.0 | 0.00 | 0.01 | 0.01 | 74 | 1014.5 |
| 20260904231758 | 87 | 110 | 3.0 | 7.0 | 0.00 | 0.01 | 0.01 | 74 | 1014.5 |
| 20260904231530 | 87 | 112 | 3.0 | 6.0 | 0.00 | 0.01 | 0.01 | 74 | 1014.5 |
| 20260904230759 | 87 | 105 | 4.0 | 6.0 | 0.00 | 0.01 | 0.01 | 73 | 1014.2 |
| 20260904230259 | 87 | 112 | 4.0 | 8.0 | 0.00 | 0.01 | 0.01 | 72 | 1014.2 |
| 20260904225752 | 87 | 109 | 4.0 | 8.0 | 0.00 | 0.01 | 0.01 | 71 | 1014.1 |
| 20260904225249 | 87 | 137 | 3.0 | 7.0 | 0.00 | 0.01 | 0.01 | 69 | 1014.1 |
| 20260904224749 | 88 | 117 | 2.0 | 7.0 | 0.00 | 0.01 | 0.01 | 69 | 1014.0 |
| 20260904224251 | 88 | 102 | 3.0 | 7.0 | 0.00 | 0.01 | 0.01 | 69 | 1013.9 |
| 20260904223750 | 88 | 90 | 4.0 | 7.0 | 0.00 | 0.01 | 0.01 | 69 | 1013.9 |
| 20260904223249 | 88 | 100 | 3.0 | 7.0 | 0.00 | 0.01 | 0.01 | 70 | 1013.9 |
| 20260904222742 | 88 | 124 | 3.0 | 8.0 | 0.00 | 0.01 | 0.01 | 70 | 1013.9 |
| 20260904222508 | 88 | 101 | 4.0 | 8.0 | 0.00 | 0.01 | 0.01 | 70 | 1013.8 |
| 20260904221737 | 88 | 66 | 4.0 | 8.0 | 0.00 | 0.01 | 0.01 | 70 | 1013.9 |
| 20260904221238 | 88 | 90 | 4.0 | 10.0 | 0.00 | 0.01 | 0.01 | 70 | 1013.8 |
| 20260904220737 | 88 | 71 | 5.0 | 10.0 | 0.00 | 0.01 | 0.01 | 70 | 1013.8 |
| 20260904220237 | 88 | 68 | 5.0 | 9.0 | 0.00 | 0.01 | 0.01 | 71 | 1013.8 |
| 20260904220010 | 88 | 103 | 4.0 | 9.0 | 0.00 | 0.01 | 0.01 | 71 | 1013.9 |
| 20260904215233 | 88 | 81 | 3.0 | 7.0 | 0.00 | 0.01 | 0.01 | 71 | 1013.8 |
| 20260904215006 | 88 | 65 | 4.0 | 8.0 | 0.00 | 0.01 | 0.01 | 71 | 1013.8 |
| 20260904214506 | 89 | 82 | 4.0 | 8.0 | 0.00 | 0.01 | 0.01 | 70 | 1013.8 |
| 20260904213733 | 89 | 100 | 3.0 | 7.0 | 0.00 | 0.01 | 0.01 | 69 | 1013.9 |
| 20260904213234 | 89 | 84 | 3.0 | 7.0 | 0.00 | 0.01 | 0.01 | 66 | 1014.0 |
| 20260904212734 | 90 | 88 | 2.0 | 4.0 | 0.00 | 0.01 | 0.01 | 65 | 1014.0 |
| 20260904212230 | 90 | 96 | 2.0 | 3.0 | 0.00 | 0.01 | 0.01 | 64 | 1014.2 |
| 20260904211729 | 90 | 53 | 2.0 | 6.0 | 0.00 | 0.01 | 0.01 | 63 | 1014.2 |
| 20260904211229 | 90 | 84 | 2.0 | 6.0 | 0.00 | 0.01 | 0.01 | 63 | 1014.2 |
| 20260904210729 | 90 | 63 | 3.0 | 6.0 | 0.00 | 0.01 | 0.01 | 64 | 1014.3 |
| 20260904210230 | 90 | 74 | 3.0 | 8.0 | 0.00 | 0.01 | 0.01 | 62 | 1014.2 |
| 20260904205730 | 90 | 28 | 3.0 | 8.0 | 0.00 | 0.01 | 0.01 | 64 | 1014.3 |
| 20260904205225 | 90 | 80 | 3.0 | 7.0 | 0.00 | 0.01 | 0.01 | 65 | 1014.4 |
| 20260904204727 | 90 | 62 | 2.0 | 6.0 | 0.00 | 0.01 | 0.01 | 65 | 1014.3 |
| 20260904204220 | 90 | 91 | 2.0 | 7.0 | 0.00 | 0.01 | 0.01 | 65 | 1014.3 |
| 20260904203716 | 90 | 13 | 2.0 | 7.0 | 0.00 | 0.01 | 0.01 | 64 | 1014.3 |
| 20260904203218 | 91 | 35 | 1.0 | 6.0 | 0.00 | 0.01 | 0.01 | 61 | 1014.4 |
| 20260904202715 | 91 | 351 | 1.0 | 4.0 | 0.00 | 0.01 | 0.01 | 61 | 1014.5 |
| 20260904202216 | 91 | 78 | 2.0 | 9.0 | 0.00 | 0.01 | 0.01 | 61 | 1014.6 |
| 20260904201717 | 91 | 77 | 2.0 | 9.0 | 0.00 | 0.01 | 0.01 | 61 | 1014.6 |
| 20260904201442 | 91 | 41 | 2.0 | 8.0 | 0.00 | 0.01 | 0.01 | 63 | 1014.7 |
| 20260904200712 | 91 | 123 | 2.0 | 8.0 | 0.00 | 0.01 | 0.01 | 63 | 1014.7 |
| 20260904200440 | 91 | 84 | 4.0 | 8.0 | 0.00 | 0.01 | 0.01 | 61 | 1014.7 |
| 20260904195942 | 90 | 154 | 2.0 | 8.0 | 0.00 | 0.01 | 0.01 | 62 | 1014.8 |
| 20260904195210 | 90 | 150 | 1.0 | 4.0 | 0.00 | 0.01 | 0.01 | 65 | 1014.8 |
| 20260904194709 | 89 | 128 | 2.0 | 7.0 | 0.00 | 0.01 | 0.01 | 65 | 1015.1 |
| 20260904194207 | 89 | 126 | 2.0 | 7.0 | 0.00 | 0.01 | 0.01 | 65 | 1015.1 |
| 20260904193707 | 90 | 160 | 2.0 | 6.0 | 0.00 | 0.01 | 0.01 | 70 | 1015.1 |
| 20260904193206 | 90 | 155 | 2.0 | 6.0 | 0.00 | 0.01 | 0.01 | 69 | 1015.2 |
| 20260904192703 | 90 | 47 | 2.0 | 4.0 | 0.00 | 0.01 | 0.01 | 64 | 1015.3 |
| 20260904192434 | 89 | 86 | 2.0 | 7.0 | 0.00 | 0.01 | 0.01 | 68 | 1015.5 |
| 20260904191701 | 89 | 31 | 2.0 | 7.0 | 0.00 | 0.01 | 0.01 | 67 | 1015.5 |
| 20260904191427 | 88 | 5 | 3.0 | 8.0 | 0.00 | 0.01 | 0.01 | 69 | 1015.5 |
| 20260904190656 | 88 | 92 | 3.0 | 8.0 | 0.00 | 0.01 | 0.01 | 67 | 1015.6 |
| 20260904190156 | 88 | 69 | 3.0 | 6.0 | 0.00 | 0.01 | 0.01 | 68 | 1015.7 |
| 20260904185656 | 88 | 79 | 3.0 | 8.0 | 0.00 | 0.01 | 0.01 | 70 | 1015.7 |
| 20260904185155 | 88 | 67 | 4.0 | 8.0 | 0.00 | 0.01 | 0.01 | 69 | 1015.7 |
| 20260904184656 | 88 | 71 | 4.0 | 8.0 | 0.00 | 0.01 | 0.01 | 70 | 1015.6 |
| 20260904184153 | 88 | 74 | 3.0 | 5.0 | 0.00 | 0.01 | 0.01 | 70 | 1015.7 |
| 20260904183652 | 88 | 96 | 4.0 | 8.0 | 0.00 | 0.01 | 0.01 | 71 | 1015.8 |
| 20260904183150 | 88 | 86 | 4.0 | 8.0 | 0.00 | 0.01 | 0.01 | 69 | 1015.8 |
| 20260904182922 | 88 | 169 | 4.0 | 9.0 | 0.00 | 0.01 | 0.01 | 71 | 1015.8 |
| 20260904182150 | 88 | 100 | 4.0 | 9.0 | 0.00 | 0.01 | 0.01 | 71 | 1015.8 |
| 20260904181650 | 88 | 105 | 3.0 | 7.0 | 0.00 | 0.01 | 0.01 | 74 | 1015.8 |
| 20260904181420 | 88 | 78 | 3.0 | 8.0 | 0.00 | 0.01 | 0.01 | 72 | 1015.9 |
| 20260904180646 | 88 | 74 | 4.0 | 8.0 | 0.00 | 0.01 | 0.01 | 72 | 1015.9 |
| 20260904180144 | 88 | 138 | 4.0 | 7.0 | 0.00 | 0.01 | 0.01 | 69 | 1016.0 |
| 20260904175644 | 88 | 89 | 4.0 | 9.0 | 0.00 | 0.01 | 0.01 | 69 | 1016.0 |
| 20260904175143 | 88 | 100 | 4.0 | 9.0 | 0.00 | 0.01 | 0.01 | 69 | 1016.1 |
| 20260904174643 | 88 | 104 | 4.0 | 9.0 | 0.00 | 0.01 | 0.01 | 68 | 1016.0 |
| 20260904174139 | 89 | 136 | 4.0 | 9.0 | 0.00 | 0.01 | 0.01 | 69 | 1016.2 |
| 20260904173639 | 89 | 74 | 4.0 | 8.0 | 0.00 | 0.01 | 0.01 | 70 | 1016.2 |
| 20260904173139 | 89 | 134 | 4.0 | 8.0 | 0.00 | 0.01 | 0.01 | 71 | 1016.4 |
| 20260904172913 | 89 | 107 | 3.0 | 9.0 | 0.00 | 0.01 | 0.01 | 68 | 1016.4 |
| 20260904172138 | 89 | 105 | 2.0 | 9.0 | 0.00 | 0.01 | 0.01 | 71 | 1016.2 |
| 20260904171639 | 88 | 120 | 3.0 | 7.0 | 0.00 | 0.01 | 0.01 | 70 | 1016.3 |
| 20260904171132 | 88 | 103 | 3.0 | 9.0 | 0.00 | 0.01 | 0.01 | 69 | 1016.5 |
| 20260904170631 | 88 | 74 | 4.0 | 9.0 | 0.00 | 0.01 | 0.01 | 69 | 1016.6 |
| 20260904170132 | 88 | 63 | 4.0 | 9.0 | 0.00 | 0.01 | 0.01 | 70 | 1016.7 |
| 20260904165632 | 88 | 95 | 4.0 | 9.0 | 0.00 | 0.01 | 0.01 | 69 | 1016.8 |
| 20260904165132 | 87 | 75 | 3.0 | 8.0 | 0.00 | 0.01 | 0.01 | 71 | 1016.8 |
| 20260904164632 | 87 | 86 | 3.0 | 7.0 | 0.00 | 0.01 | 0.01 | 74 | 1016.8 |
| 20260904164124 | 87 | 103 | 3.0 | 9.0 | 0.00 | 0.01 | 0.01 | 73 | 1016.8 |
| 20260904163626 | 87 | 117 | 3.0 | 9.0 | 0.00 | 0.01 | 0.01 | 74 | 1016.9 |
| 20260904163356 | 87 | 91 | 4.0 | 9.0 | 0.00 | 0.01 | 0.01 | 74 | 1016.9 |
| 20260904162857 | 87 | 111 | 4.0 | 9.0 | 0.00 | 0.01 | 0.01 | 73 | 1016.9 |
| 20260904162125 | 86 | 63 | 3.0 | 8.0 | 0.00 | 0.01 | 0.01 | 76 | 1017.0 |
| 20260904161625 | 86 | 104 | 4.0 | 8.0 | 0.00 | 0.01 | 0.01 | 76 | 1017.0 |
| 20260904161355 | 85 | 73 | 3.0 | 9.0 | 0.00 | 0.01 | 0.01 | 78 | 1017.1 |
| 20260904161120 | 85 | 106 | 4.0 | 9.0 | 0.00 | 0.01 | 0.01 | 77 | 1017.0 |
| 20260904160122 | 85 | 83 | 2.0 | 5.0 | 0.00 | 0.01 | 0.01 | 79 | 1017.1 |
| 20260904155621 | 85 | 63 | 3.0 | 7.0 | 0.00 | 0.01 | 0.01 | 79 | 1017.0 |
| 20260904155120 | 85 | 115 | 2.0 | 7.0 | 0.00 | 0.01 | 0.01 | 81 | 1017.0 |
| 20260904154620 | 84 | 67 | 2.0 | 4.0 | 0.00 | 0.01 | 0.01 | 80 | 1017.0 |
| 20260904154114 | 84 | 74 | 2.0 | 4.0 | 0.00 | 0.01 | 0.01 | 81 | 1017.0 |
| 20260904153615 | 83 | 41 | 2.0 | 5.0 | 0.00 | 0.01 | 0.01 | 81 | 1017.0 |
| 20260904153115 | 83 | 71 | 2.0 | 5.0 | 0.00 | 0.01 | 0.01 | 82 | 1017.1 |
| 20260904152615 | 83 | 22 | 2.0 | 4.0 | 0.00 | 0.01 | 0.01 | 83 | 1017.0 |
| 20260904152113 | 82 | 62 | 1.0 | 3.0 | 0.00 | 0.01 | 0.01 | 84 | 1016.8 |
| 20260904151613 | 82 | 22 | 1.0 | 3.0 | 0.00 | 0.01 | 0.01 | 83 | 1016.9 |
| 20260904151340 | 82 | 36 | 1.0 | 3.0 | 0.00 | 0.01 | 0.01 | 84 | 1016.8 |
| 20260904150610 | 82 | 52 | 0.0 | 3.0 | 0.00 | 0.01 | 0.01 | 84 | 1016.7 |
| 20260904150342 | 81 | 32 | 0.0 | 2.0 | 0.00 | 0.01 | 0.01 | 87 | 1016.7 |
| 20260904145609 | 81 | 5 | 0.0 | 2.0 | 0.00 | 0.01 | 0.01 | 88 | 1016.6 |
| 20260904145107 | 80 | 59 | 0.0 | 2.0 | 0.00 | 0.01 | 0.01 | 87 | 1016.6 |
| 20260904144605 | 80 | 34 | 0.0 | 2.0 | 0.00 | 0.01 | 0.01 | 87 | 1016.7 |
| 20260904144330 | 80 | 67 | 0.0 | 2.0 | 0.00 | 0.01 | 0.01 | 88 | 1016.7 |
| 20260904143559 | 80 | 32 | 0.0 | 2.0 | 0.00 | 0.01 | 0.01 | 89 | 1016.6 |
| 20260904143056 | 80 | 13 | 0.0 | 2.0 | 0.00 | 0.01 | 0.01 | 91 | 1016.6 |
| 20260904142556 | 79 | 27 | 0.0 | 2.0 | 0.01 | 0.01 | 0.01 | 91 | 1016.4 |
| 20260904142057 | 79 | 58 | 1.0 | 2.0 | 0.01 | 0.01 | 0.01 | 92 | 1016.5 |
| 20260904141557 | 78 | 66 | 1.0 | 2.0 | 0.01 | 0.01 | 0.01 | 92 | 1016.5 |
| 20260904141057 | 78 | 64 | 0.0 | 2.0 | 0.01 | 0.01 | 0.01 | 92 | 1016.5 |
| 20260904140552 | 78 | 70 | 0.0 | 0.0 | 0.01 | 0.01 | 0.01 | 93 | 1016.4 |
| 20260904140322 | 78 | 70 | 0.0 | 0.0 | 0.01 | 0.01 | 0.01 | 94 | 1016.4 |
| 20260904135824 | 77 | 70 | 0.0 | 0.0 | 0.01 | 0.01 | 0.01 | 94 | 1016.4 |
| 20260904135052 | 77 | 70 | 0.0 | 0.0 | 0.01 | 0.01 | 0.01 | 94 | 1016.4 |
| 20260904134554 | 77 | 70 | 0.0 | 0.0 | 0.01 | 0.01 | 0.01 | 94 | 1016.4 |
| 20260904134053 | 77 | 70 | 0.0 | 0.0 | 0.01 | 0.01 | 0.01 | 94 | 1016.4 |
| 20260904133548 | 77 | 70 | 0.0 | 0.0 | 0.01 | 0.01 | 0.01 | 94 | 1016.4 |
| 20260904133048 | 76 | 74 | 0.0 | 0.0 | 0.01 | 0.01 | 0.01 | 94 | 1016.3 |
| 20260904132550 | 76 | 74 | 0.0 | 0.0 | 0.00 | 0.00 | 0.00 | 94 | 1016.3 |
| 20260904132048 | 76 | 74 | 0.0 | 0.0 | 0.00 | 0.00 | 0.00 | 95 | 1016.3 |
| 20260904131548 | 76 | 74 | 0.0 | 0.0 | 0.00 | 0.00 | 0.00 | 95 | 1016.3 |
| 20260904131050 | 76 | 74 | 0.0 | 0.0 | 0.00 | 0.00 | 0.00 | 95 | 1016.3 |
| 20260904130549 | 76 | 74 | 0.0 | 0.0 | 0.00 | 0.00 | 0.00 | 95 | 1016.2 |
| 20260904130318 | 76 | 74 | 0.0 | 0.0 | 0.00 | 0.00 | 0.00 | 95 | 1016.2 |
| 20260904125542 | 76 | 74 | 0.0 | 0.0 | 0.00 | 0.00 | 0.00 | 94 | 1016.1 |
| 20260904125043 | 75 | 74 | 0.0 | 0.0 | 0.00 | 0.00 | 0.00 | 94 | 1016.1 |
| 20260904124542 | 75 | 74 | 0.0 | 0.0 | 0.00 | 0.00 | 0.00 | 94 | 1016.0 |
| 20260904124041 | 75 | 73 | 0.0 | 0.0 | 0.00 | 0.00 | 0.00 | 94 | 1016.0 |
| 20260904123541 | 75 | 73 | 0.0 | 0.0 | 0.00 | 0.00 | 0.00 | 94 | 1016.0 |
| 20260904123040 | 75 | 73 | 0.0 | 0.0 | 0.00 | 0.00 | 0.00 | 94 | 1016.0 |
| 20260904122534 | 75 | 73 | 0.0 | 0.0 | 0.00 | 0.00 | 0.00 | 94 | 1015.9 |
| 20260904122032 | 75 | 73 | 0.0 | 0.0 | 0.00 | 0.00 | 0.00 | 94 | 1015.8 |
| 20260904121531 | 75 | 105 | 0.0 | 0.0 | 0.00 | 0.00 | 0.00 | 94 | 1015.8 |
| 20260904121301 | 76 | 105 | 0.0 | 0.0 | 0.00 | 0.00 | 0.00 | 94 | 1015.6 |
| 20260904120528 | 75 | 105 | 0.0 | 0.0 | 0.00 | 0.00 | 0.00 | 94 | 1015.4 |
| 20260904120025 | 75 | 105 | 0.0 | 0.0 | 0.00 | 0.00 | 0.00 | 94 | 1015.4 |
| 20260904115525 | 75 | 106 | 0.0 | 0.0 | 0.00 | 0.00 | 0.00 | 94 | 1015.5 |
| 20260904115024 | 75 | 106 | 0.0 | 0.0 | 0.00 | 0.00 | 0.00 | 94 | 1015.4 |
| 20260904114525 | 75 | 106 | 0.0 | 0.0 | 0.00 | 0.00 | 0.00 | 94 | 1015.5 |
| 20260904114023 | 75 | 106 | 0.0 | 1.0 | 0.00 | 0.00 | 0.00 | 94 | 1015.4 |
| 20260904113524 | 75 | 106 | 0.0 | 1.0 | 0.00 | 0.00 | 0.00 | 94 | 1015.3 |
| 20260904113022 | 75 | 106 | 0.0 | 1.0 | 0.00 | 0.00 | 0.00 | 94 | 1015.4 |
| 20260904112519 | 75 | 106 | 0.0 | 1.0 | 0.00 | 0.00 | 0.00 | 94 | 1015.3 |
| 20260904112249 | 75 | 98 | 0.0 | 1.0 | 0.00 | 0.00 | 0.00 | 94 | 1015.4 |
| 20260904111519 | 75 | 82 | 0.0 | 0.0 | 0.00 | 0.00 | 0.00 | 94 | 1015.4 |
| 20260904111017 | 75 | 76 | 0.0 | 0.0 | 0.00 | 0.00 | 0.00 | 94 | 1015.3 |
| 20260904110516 | 75 | 76 | 0.0 | 0.0 | 0.00 | 0.00 | 0.00 | 93 | 1015.3 |
| 20260904110011 | 75 | 76 | 0.0 | 0.0 | 0.00 | 0.00 | 0.00 | 93 | 1015.3 |
| 20260904105739 | 76 | 76 | 0.0 | 0.0 | 0.00 | 0.00 | 0.00 | 93 | 1015.1 |
| 20260904105007 | 76 | 76 | 0.0 | 0.0 | 0.00 | 0.00 | 0.00 | 93 | 1015.1 |
| 20260904104505 | 76 | 76 | 0.0 | 0.0 | 0.00 | 0.00 | 0.00 | 93 | 1015.1 |
| 20260904104004 | 76 | 76 | 0.0 | 0.0 | 0.00 | 0.00 | 0.00 | 93 | 1015.0 |
| 20260904103458 | 76 | 76 | 0.0 | 0.0 | 0.00 | 0.00 | 0.00 | 93 | 1015.1 |
| 20260904102957 | 76 | 76 | 0.0 | 0.0 | 0.00 | 0.00 | 0.00 | 93 | 1015.1 |
| 20260904102455 | 76 | 76 | 0.0 | 1.0 | 0.00 | 0.00 | 0.00 | 93 | 1015.0 |
| 20260904101953 | 76 | 76 | 0.0 | 1.0 | 0.00 | 0.00 | 0.00 | 93 | 1015.0 |
| 20260904101452 | 76 | 76 | 0.0 | 1.0 | 0.00 | 0.00 | 0.00 | 94 | 1015.1 |
| 20260904101218 | 76 | 76 | 0.0 | 2.0 | 0.00 | 0.00 | 0.00 | 94 | 1015.0 |
| 20260904101105 | 76 | 76 | 0.0 | 2.0 | 0.00 | 0.00 | 0.00 | 94 | 1015.0 |
| 20260904100221 | 76 | 93 | 1.0 | 2.0 | 0.00 | 0.00 | 0.00 | 94 | 1015.0 |
| 20260904095449 | 76 | 85 | 1.0 | 2.0 | 0.00 | 0.00 | 0.00 | 94 | 1014.9 |
| 20260904094947 | 76 | 92 | 0.0 | 2.0 | 0.00 | 0.00 | 0.00 | 94 | 1014.8 |
| 20260904094446 | 76 | 98 | 0.0 | 2.0 | 0.00 | 0.00 | 0.00 | 94 | 1014.9 |
| 20260904093945 | 76 | 99 | 0.0 | 2.0 | 0.00 | 0.00 | 0.00 | 94 | 1014.9 |
| 20260904093443 | 76 | 70 | 0.0 | 0.0 | 0.00 | 0.00 | 0.00 | 93 | 1014.9 |
| 20260904092939 | 76 | 70 | 0.0 | 0.0 | 0.00 | 0.00 | 0.00 | 93 | 1015.0 |
| 20260904092441 | 76 | 70 | 0.0 | 0.0 | 0.00 | 0.00 | 0.00 | 93 | 1014.8 |
| 20260904091940 | 76 | 70 | 0.0 | 1.0 | 0.00 | 0.00 | 0.00 | 93 | 1014.9 |
| 20260904091442 | 76 | 70 | 0.0 | 1.0 | 0.00 | 0.00 | 0.00 | 93 | 1014.9 |
| 20260904090935 | 76 | 70 | 0.0 | 1.0 | 0.00 | 0.00 | 0.00 | 93 | 1014.9 |
| 20260904090704 | 76 | 70 | 0.0 | 1.0 | 0.00 | 0.00 | 0.00 | 93 | 1014.9 |
| 20260904085930 | 76 | 70 | 0.0 | 1.0 | 0.00 | 0.00 | 0.00 | 93 | 1014.8 |
| 20260904085429 | 76 | 70 | 0.0 | 2.0 | 0.00 | 0.00 | 0.00 | 93 | 1014.8 |
| 20260904084930 | 76 | 69 | 1.0 | 2.0 | 0.00 | 0.00 | 0.00 | 93 | 1014.9 |
| 20260904084425 | 76 | 76 | 1.0 | 2.0 | 0.00 | 0.00 | 0.00 | 93 | 1014.9 |
| 20260904084159 | 76 | 74 | 1.0 | 2.0 | 0.00 | 0.00 | 0.00 | 93 | 1014.9 |
| 20260904083427 | 76 | 77 | 0.0 | 2.0 | 0.00 | 0.00 | 0.00 | 93 | 1014.7 |
| 20260904082924 | 76 | 75 | 0.0 | 0.0 | 0.00 | 0.00 | 0.00 | 93 | 1014.9 |
| 20260904082654 | 76 | 75 | 0.0 | 0.0 | 0.00 | 0.00 | 0.00 | 93 | 1014.8 |
| 20260904081922 | 76 | 75 | 0.0 | 1.0 | 0.00 | 0.00 | 0.00 | 93 | 1014.8 |
| 20260904081421 | 76 | 66 | 0.0 | 1.0 | 0.00 | 0.00 | 0.00 | 93 | 1014.8 |
| 20260904080918 | 76 | 34 | 0.0 | 0.0 | 0.00 | 0.00 | 0.00 | 93 | 1014.7 |
| 20260904080418 | 76 | 34 | 0.0 | 0.0 | 0.00 | 0.00 | 0.00 | 93 | 1014.7 |
| 20260904075918 | 76 | 34 | 0.0 | 0.0 | 0.00 | 0.00 | 0.00 | 93 | 1014.7 |
| 20260904075417 | 76 | 34 | 0.0 | 0.0 | 0.00 | 0.00 | 0.00 | 93 | 1014.7 |
| 20260904075147 | 76 | 34 | 0.0 | 0.0 | 0.00 | 0.00 | 0.00 | 93 | 1014.9 |
| 20260904074413 | 76 | 34 | 0.0 | 0.0 | 0.00 | 0.00 | 0.00 | 93 | 1014.8 |
| 20260904073913 | 76 | 34 | 0.0 | 0.0 | 0.00 | 0.00 | 0.00 | 93 | 1015.0 |